Weather History for Tillamook, OR

Change the Weather History Date:

Tuesday, November 19, 2013

  Actual Average (KMMV) Record (KMMV)
Temperature  
Mean Temperature 44 °F 44 °F  
Max Temperature 53 °F 51 °F 62 °F (1943)
Min Temperature 33 °F 38 °F 23 °F (1964)
Degree Days  
Heating Degree Days 21 21  
Month to date heating degree days 358  
Since 1 July heating degree days 981  
Cooling Degree Days 0 0  
Month to date cooling degree days 0  
Year to date cooling degree days 215  
Moisture  
Dew Point 44 °F    
Average Humidity 88    
Maximum Humidity 100    
Minimum Humidity 71    
Precipitation  
Precipitation 0.55 in 0.22 in 4.31 in (1897)
Month to date precipitation 3.91  
Year to date precipitation 30.77  
Snow  
Snow 0.00 in - - ()
Month to date snowfall  
Since 1 July snowfall  
Since 1 September snowfall  
Snow Depth -    
Sea Level Pressure  
Sea Level Pressure 29.85 in    
Wind  
Wind Speed 11 mph (West)    
Max Wind Speed 21 mph    
Max Gust Speed 31 mph    
Visibility 8 miles    
Events Rain    
T = Trace of Precipitation, MM = Missing Value Source: NWS Daily Summary

Daily Weather History Graph

Daily Weather History Graph

Search for Another Location

Airport:

Trip Planner

Search our weather history database for the weather conditions in past years. The results will help you decide how hot, cold, wet, or windy it might be!

Date:

Astronomy

Nov. 19, 2013 Rise Set
Actual Time 8:20 AM MST 5:41 PM MST
Civil Twilight 7:47 AM MST 6:13 PM MST
Nautical Twilight 7:11 AM MST 6:49 PM MST
Astronomical Twilight 6:36 AM MST 7:24 PM MST
Moon 7:36 PM MST (11/19) 10:04 AM MST (11/19)
Length of Visible Light 10h 25m
Length of Day
9h 21m
Waning Gibbous, 96% of the Moon is Illuminated
Nov 19
Waning Gibbous
Nov 25
Last Quarter
Dec 2
New
Dec 9
First Quarter
Dec 17
Full

Hourly Weather History & Observations

Time (MST) Temp. Windchill Dew Point Humidity Pressure Visibility Wind Dir Wind Speed Gust Speed Precip Events Conditions
12:15 AM 53.6 °F - 51.8 °F 94% 29.73 in 10.0 mi South 20.7 mph 31.1 mph N/A Rain Light Rain
12:35 AM 53.6 °F - 51.8 °F 94% 29.73 in 4.0 mi South 13.8 mph 27.6 mph N/A Rain Light Rain
12:55 AM 53.6 °F - 51.8 °F 94% 29.73 in 4.0 mi South 15.0 mph 25.3 mph 0.01 in Rain Light Rain
1:15 AM 53.6 °F - 51.8 °F 94% 29.73 in 3.0 mi South 15.0 mph 25.3 mph 0.01 in Rain Light Rain
1:35 AM 53.6 °F - 51.8 °F 94% 29.73 in 5.0 mi SSW 17.3 mph 28.8 mph 0.02 in Rain Light Rain
1:55 AM 53.6 °F - 51.8 °F 94% 29.73 in 7.0 mi South 13.8 mph 23.0 mph 0.03 in Rain Rain
2:15 AM 53.6 °F - 51.8 °F 94% 29.73 in 7.0 mi South 15.0 mph 21.9 mph N/A Rain Rain
2:35 AM 53.6 °F - 51.8 °F 94% 29.73 in 7.0 mi SSW 9.2 mph - 0.02 in Rain Light Rain
2:55 AM 53.6 °F - 51.8 °F 94% 29.73 in 7.0 mi South 12.7 mph 16.1 mph 0.02 in   Drizzle
3:15 AM 53.6 °F - 51.8 °F 94% 29.73 in 7.0 mi South 9.2 mph - 0.01 in Rain Rain
3:35 AM 53.6 °F - 51.8 °F 94% 29.72 in 10.0 mi South 11.5 mph - 0.02 in   Drizzle
3:55 AM 53.6 °F - 51.8 °F 94% 29.73 in 7.0 mi SSW 9.2 mph - 0.02 in   Drizzle
4:15 AM 53.6 °F - 51.8 °F 94% 29.73 in 7.0 mi South 10.4 mph - 0.01 in Rain Light Rain
4:35 AM 53.6 °F - 51.8 °F 94% 29.73 in 7.0 mi SSW 8.1 mph - 0.04 in Rain Rain
4:55 AM 53.6 °F - 51.8 °F 94% 29.73 in 7.0 mi SSW 13.8 mph 19.6 mph 0.07 in Rain Rain
5:15 AM 51.8 °F - 51.8 °F 100% 29.73 in 4.0 mi WNW 10.4 mph - 0.09 in Rain Rain
5:35 AM 51.8 °F - 50.0 °F 94% 29.73 in 5.0 mi WNW 8.1 mph - 0.15 in Rain Light Rain
5:55 AM 50.0 °F - 50.0 °F 100% 29.74 in 4.0 mi West 10.4 mph - 0.21 in Rain Rain
6:15 AM 50.0 °F - 50.0 °F 100% 29.75 in 7.0 mi WNW 10.4 mph - 0.04 in Rain Rain
6:35 AM 50.0 °F - 50.0 °F 100% 29.75 in 7.0 mi West 9.2 mph - 0.08 in Rain Light Rain
6:55 AM 50.0 °F - 48.2 °F 94% 29.75 in 7.0 mi West 8.1 mph - 0.10 in Rain Rain
7:15 AM 50.0 °F - 48.2 °F 94% 29.76 in 7.0 mi West 8.1 mph - 0.02 in Rain Light Rain
7:35 AM 48.2 °F - 46.4 °F 93% 29.76 in 5.0 mi West 8.1 mph - 0.04 in Rain Light Rain
7:55 AM 48.2 °F - 46.4 °F 93% 29.78 in 5.0 mi West 11.5 mph - 0.06 in Rain Light Rain
8:15 AM 48.2 °F - 46.4 °F 93% 29.78 in 5.0 mi West 11.5 mph - 0.01 in Rain Light Rain
8:35 AM 48.2 °F - 46.4 °F 93% 29.78 in 4.0 mi West 9.2 mph - 0.02 in Rain Light Rain
8:55 AM 48.2 °F - 46.4 °F 93% 29.79 in 7.0 mi WNW 8.1 mph - 0.02 in   Overcast
9:15 AM 48.2 °F - 46.4 °F 93% 29.80 in 7.0 mi West 4.6 mph - N/A   Overcast
9:35 AM 48.2 °F - 46.4 °F 93% 29.81 in 10.0 mi WNW 5.8 mph - 0.01 in   Overcast
9:55 AM 48.2 °F - 46.4 °F 93% 29.82 in 10.0 mi WNW 11.5 mph 19.6 mph 0.01 in   Overcast
10:15 AM 48.2 °F - 46.4 °F 93% 29.83 in 10.0 mi WNW 11.5 mph 18.4 mph N/A   Overcast
10:35 AM 48.2 °F - 44.6 °F 87% 29.83 in 10.0 mi WNW 11.5 mph - N/A   Overcast
10:55 AM 48.2 °F - 44.6 °F 87% 29.84 in 10.0 mi WNW 11.5 mph - N/A   Overcast
11:15 AM 50.0 °F - 44.6 °F 82% 29.85 in 10.0 mi NW 11.5 mph - N/A   Overcast
11:35 AM 50.0 °F - 42.8 °F 76% 29.86 in 10.0 mi WNW 9.2 mph - N/A   Overcast
11:55 AM 50.0 °F - 44.6 °F 82% 29.87 in 10.0 mi WNW 9.2 mph - N/A   Overcast
12:15 PM 50.0 °F - 44.6 °F 82% 29.88 in 10.0 mi WNW 13.8 mph - N/A   Overcast
12:35 PM 48.2 °F - 42.8 °F 82% 29.89 in 10.0 mi WNW 11.5 mph 18.4 mph N/A   Overcast
12:55 PM 50.0 °F - 41.0 °F 71% 29.89 in 10.0 mi NW 9.2 mph - N/A   Overcast
1:15 PM 50.0 °F - 41.0 °F 71% 29.89 in 10.0 mi WNW 9.2 mph - N/A   Overcast
1:35 PM 50.0 °F - 42.8 °F 76% 29.89 in 10.0 mi NW 12.7 mph 16.1 mph N/A   Overcast
1:55 PM 50.0 °F - 41.0 °F 71% 29.89 in 10.0 mi NW 12.7 mph - N/A   Overcast
2:15 PM 50.0 °F - 42.8 °F 76% 29.89 in 10.0 mi WNW 9.2 mph - N/A   Overcast
2:35 PM 50.0 °F - 41.0 °F 71% 29.89 in 10.0 mi WNW 10.4 mph - N/A   Overcast
2:55 PM 48.2 °F - 41.0 °F 76% 29.90 in 10.0 mi WNW 11.5 mph - N/A   Overcast
3:15 PM 48.2 °F - 41.0 °F 76% 29.90 in 10.0 mi WNW 12.7 mph 16.1 mph N/A   Mostly Cloudy
3:35 PM 48.2 °F - 41.0 °F 76% 29.89 in 10.0 mi WNW 12.7 mph 17.3 mph N/A   Scattered Clouds
3:55 PM 48.2 °F - 41.0 °F 76% 29.89 in 10.0 mi WNW 10.4 mph - N/A   Scattered Clouds
4:15 PM 48.2 °F - 41.0 °F 76% 29.90 in 10.0 mi NW 8.1 mph - N/A   Scattered Clouds
4:35 PM 48.2 °F - 41.0 °F 76% 29.90 in 10.0 mi NW 12.7 mph 16.1 mph N/A   Mostly Cloudy
4:55 PM 46.4 °F 41.1 °F 39.2 °F 76% 29.91 in 10.0 mi NW 11.5 mph - N/A   Mostly Cloudy
5:15 PM 46.4 °F - 39.2 °F 76% 29.91 in 10.0 mi Calm Calm - N/A   Mostly Cloudy
5:35 PM 44.6 °F - 41.0 °F 87% 29.92 in 10.0 mi Calm Calm - N/A   Mostly Cloudy
5:55 PM 44.6 °F 42.2 °F 39.2 °F 81% 29.92 in 10.0 mi NW 4.6 mph - N/A   Mostly Cloudy
6:15 PM 44.6 °F 38.8 °F 37.4 °F 76% 29.93 in 10.0 mi NW 11.5 mph - N/A   Overcast
6:35 PM 44.6 °F 40.2 °F 37.4 °F 76% 29.94 in 10.0 mi NW 8.1 mph - N/A   Overcast
6:55 PM 44.6 °F - 37.4 °F 76% 29.95 in 10.0 mi Calm Calm - N/A   Scattered Clouds
7:15 PM 42.8 °F - 37.4 °F 81% 29.96 in 10.0 mi Calm Calm - N/A   Clear
7:35 PM 42.8 °F - 37.4 °F 81% 29.96 in 10.0 mi Calm Calm - N/A   Clear
7:55 PM 41.0 °F - 37.4 °F 87% 29.97 in 10.0 mi Calm Calm - N/A   Clear
8:15 PM 41.0 °F - 37.4 °F 87% 29.97 in 10.0 mi Calm Calm - N/A   Clear
8:35 PM 41.0 °F - 33.8 °F 76% 29.98 in 10.0 mi Calm Calm - N/A   Clear
8:55 PM 39.2 °F - 35.6 °F 87% 29.99 in 10.0 mi Calm Calm - N/A   Clear
9:15 PM 37.4 °F - 35.6 °F 93% 29.99 in 10.0 mi Calm Calm - N/A   Clear
9:35 PM 37.4 °F - 35.6 °F 93% 30.01 in 10.0 mi Calm Calm - N/A   Clear
9:55 PM 37.4 °F - 35.6 °F 93% 30.01 in 10.0 mi Calm Calm - N/A   Clear
10:15 PM 35.6 °F - 35.6 °F 100% 30.01 in 10.0 mi Calm Calm - N/A   Clear
10:35 PM 35.6 °F - 35.6 °F 100% 30.02 in 10.0 mi Calm Calm - N/A   Clear
10:55 PM 35.6 °F - 35.6 °F 100% 30.03 in 10.0 mi Calm Calm - N/A   Clear
11:15 PM 35.6 °F - 35.6 °F 100% 30.03 in 10.0 mi Calm Calm - N/A   Clear
11:35 PM 35.6 °F - 35.6 °F 100% 30.04 in 10.0 mi Calm Calm - N/A   Clear
11:55 PM 33.8 °F - 33.8 °F 100% 30.04 in 7.0 mi Calm Calm - N/A   Clear